Location: Jackson
(35.6140°N, 88.8140°W)
Time: 18:36:29
(UTC-05:00)

Envisat - Visible Passes

Search period start: 20 October 2019 00:00
Search period end: 30 October 2019 00:00
Orbit: 764 x 766 km, 98.1° (Epoch: 20 October)

Date Brightness Start Highest point End Pass type
(mag) Time Alt. Az. Time Alt. Az. Time Alt. Az.
20 Oct 3.1 19:09:12 10° S 19:14:16 82° WSW 19:19:22 10° NNW visible
21 Oct 3.4 18:32:51 10° SE 18:37:36 42° ENE 18:42:23 10° N visible
21 Oct 5.7 20:13:16 10° SW 20:16:46 19° W 20:20:17 10° NW visible
22 Oct 4.2 19:34:58 10° S 19:39:48 44° W 19:44:39 10° NNW visible
23 Oct 2.9 18:57:57 10° SSE 19:03:01 78° ENE 19:08:06 10° N visible
24 Oct 5.3 20:01:22 10° SSW 20:05:25 24° W 20:09:31 10° NW visible
25 Oct 6.3 06:35:06 10° ENE 06:37:47 14° E 06:40:28 10° SE visible
25 Oct 3.7 19:23:32 10° S 19:28:31 57° W 19:33:30 10° NNW visible
26 Oct 3.0 18:46:48 10° SSE 18:51:46 61° ENE 18:56:47 10° N visible
26 Oct 6.1 20:28:54 10° WSW 20:31:08 13° W 20:33:24 10° WNW visible
27 Oct 4.9 19:49:38 10° SSW 19:54:05 31° W 19:58:34 10° NW visible
28 Oct 6.7 06:25:17 10° ENE 06:26:24 11° E 06:27:32 10° ESE visible
28 Oct 3.2 19:12:10 10° S 19:17:14 74° W 19:22:19 10° NNW visible
29 Oct 3.2 18:35:43 10° SE 18:40:33 47° ENE 18:45:25 10° N visible
29 Oct 5.8 20:16:32 10° SW 20:19:46 17° W 20:23:01 10° NW visible
